| time (UTC) | temp F | wind direction | speed MPH | gust MPH | rain 1hr in | rain 24hr in | rain mn in | humidity % | barometer mb |
| 20260506210529 | 74 | 293 | 1.0 | 4.0 | 0.00 | 0.00 | 0.00 | 58 | 1019.4 |
| 20260506205518 | 74 | 1 | 1.0 | 5.0 | 0.00 | 0.00 | 0.00 | 58 | 1019.4 |
| 20260506204529 | 73 | 325 | 1.0 | 2.0 | 0.00 | 0.00 | 0.00 | 58 | 1019.5 |
| 20260506203525 | 73 | 314 | 2.0 | 5.0 | 0.00 | 0.00 | 0.00 | 60 | 1019.6 |
| 20260506202529 | 73 | 278 | 1.0 | 2.0 | 0.00 | 0.00 | 0.00 | 60 | 1019.7 |
| 20260506201529 | 72 | 358 | 1.0 | 3.0 | 0.00 | 0.00 | 0.00 | 60 | 1019.9 |
| 20260506200529 | 72 | 49 | 1.0 | 3.0 | 0.00 | 0.00 | 0.00 | 60 | 1020.0 |
| 20260506195529 | 72 | 341 | 1.0 | 2.0 | 0.00 | 0.00 | 0.00 | 60 | 1020.1 |
| 20260506194530 | 71 | 41 | 1.0 | 3.0 | 0.00 | 0.00 | 0.00 | 61 | 1020.2 |
| 20260506193530 | 70 | 13 | 1.0 | 4.0 | 0.00 | 0.00 | 0.00 | 63 | 1020.3 |
| 20260506192529 | 70 | 352 | 1.0 | 4.0 | 0.00 | 0.00 | 0.00 | 63 | 1020.3 |
| 20260506191530 | 70 | 352 | 1.0 | 3.0 | 0.00 | 0.00 | 0.00 | 64 | 1020.4 |
| 20260506190530 | 70 | 346 | 2.0 | 4.0 | 0.00 | 0.00 | 0.00 | 62 | 1020.5 |
| 20260506185530 | 71 | 42 | 1.0 | 3.0 | 0.00 | 0.00 | 0.00 | 61 | 1020.6 |
| 20260506184519 | 70 | 317 | 1.0 | 6.0 | 0.00 | 0.00 | 0.00 | 63 | 1020.6 |
| 20260506183530 | 68 | 30 | 1.0 | 3.0 | 0.00 | 0.00 | 0.00 | 65 | 1020.6 |
| 20260506182531 | 67 | 350 | 1.0 | 5.0 | 0.00 | 0.00 | 0.00 | 66 | 1020.6 |
| 20260506181531 | 67 | 358 | 1.0 | 3.0 | 0.00 | 0.00 | 0.00 | 64 | 1020.7 |
| 20260506180531 | 65 | 39 | 1.0 | 2.0 | 0.00 | 0.00 | 0.00 | 67 | 1020.7 |
| 20260506175518 | 64 | 331 | 2.0 | 4.0 | 0.00 | 0.00 | 0.00 | 69 | 1020.6 |
| 20260506174518 | 63 | 308 | 1.0 | 4.0 | 0.00 | 0.00 | 0.00 | 70 | 1020.7 |
| 20260506173518 | 64 | 340 | 2.0 | 3.0 | 0.00 | 0.00 | 0.00 | 70 | 1020.8 |
| 20260506172518 | 63 | 322 | 0.0 | 1.0 | 0.00 | 0.00 | 0.00 | 72 | 1020.8 |
| 20260506171518 | 62 | 256 | 1.0 | 2.0 | 0.00 | 0.00 | 0.00 | 72 | 1020.8 |
| 20260506170518 | 61 | 302 | 1.0 | 2.0 | 0.00 | 0.00 | 0.00 | 73 | 1020.9 |
| 20260506165518 | 61 | 288 | 1.0 | 1.0 | 0.00 | 0.00 | 0.00 | 74 | 1020.8 |
| 20260506164532 | 61 | 331 | 1.0 | 2.0 | 0.00 | 0.00 | 0.00 | 75 | 1020.8 |
| 20260506163519 | 60 | 320 | 1.0 | 2.0 | 0.00 | 0.00 | 0.00 | 76 | 1020.8 |
| 20260506162559 | 60 | 241 | 1.0 | 2.0 | 0.00 | 0.00 | 0.00 | 77 | 1020.8 |
| 20260506161519 | 59 | 326 | 1.0 | 3.0 | 0.00 | 0.00 | 0.00 | 78 | 1020.8 |
| 20260506160519 | 59 | 326 | 1.0 | 2.0 | 0.00 | 0.00 | 0.00 | 79 | 1020.8 |
| 20260506155519 | 58 | 329 | 1.0 | 2.0 | 0.00 | 0.00 | 0.00 | 81 | 1020.8 |
| 20260506154519 | 58 | 310 | 1.0 | 2.0 | 0.00 | 0.00 | 0.00 | 82 | 1020.7 |
| 20260506153520 | 57 | 328 | 1.0 | 3.0 | 0.00 | 0.00 | 0.00 | 85 | 1020.7 |
| 20260506152520 | 57 | 320 | 1.0 | 2.0 | 0.00 | 0.00 | 0.00 | 88 | 1020.7 |
| 20260506151520 | 56 | 336 | 1.0 | 2.0 | 0.00 | 0.00 | 0.00 | 90 | 1020.6 |
| 20260506150520 | 55 | 323 | 1.0 | 1.0 | 0.00 | 0.00 | 0.00 | 91 | 1020.6 |
| 20260506145520 | 55 | 318 | 1.0 | 2.0 | 0.00 | 0.00 | 0.00 | 93 | 1020.5 |
| 20260506144520 | 55 | 320 | 0.0 | 1.0 | 0.00 | 0.00 | 0.00 | 93 | 1020.5 |
| 20260506143520 | 54 | 324 | 1.0 | 2.0 | 0.00 | 0.00 | 0.00 | 93 | 1020.4 |
| 20260506142520 | 54 | 329 | 1.0 | 2.0 | 0.00 | 0.00 | 0.00 | 93 | 1020.4 |
| 20260506141520 | 53 | 259 | 0.0 | 1.0 | 0.00 | 0.00 | 0.00 | 93 | 1020.3 |
| 20260506140521 | 53 | 281 | 1.0 | 1.0 | 0.00 | 0.00 | 0.00 | 93 | 1020.2 |
| 20260506135521 | 52 | 311 | 1.0 | 1.0 | 0.00 | 0.00 | 0.00 | 93 | 1020.0 |
| 20260506134521 | 52 | 273 | 1.0 | 1.0 | 0.00 | 0.00 | 0.00 | 93 | 1019.9 |
| 20260506133522 | 52 | 317 | 1.0 | 2.0 | 0.00 | 0.00 | 0.00 | 93 | 1019.7 |
| 20260506132521 | 51 | 284 | 1.0 | 1.0 | 0.00 | 0.00 | 0.00 | 92 | 1019.6 |
| 20260506131521 | 51 | 285 | 1.0 | 1.0 | 0.00 | 0.00 | 0.00 | 92 | 1019.5 |
| 20260506130521 | 51 | 301 | 1.0 | 2.0 | 0.00 | 0.00 | 0.00 | 92 | 1019.5 |
| 20260506125521 | 51 | 325 | 1.0 | 2.0 | 0.00 | 0.00 | 0.00 | 92 | 1019.4 |
| 20260506124623 | 51 | 325 | 1.0 | 2.0 | 0.00 | 0.00 | 0.00 | 92 | 1019.4 |
| 20260506123521 | 51 | 307 | 1.0 | 1.0 | 0.00 | 0.00 | 0.00 | 92 | 1019.4 |
| 20260506122522 | 51 | 297 | 0.0 | 1.0 | 0.00 | 0.00 | 0.00 | 91 | 1019.3 |
| 20260506121522 | 51 | 253 | 1.0 | 1.0 | 0.00 | 0.00 | 0.00 | 91 | 1019.3 |
| 20260506120523 | 51 | 282 | 1.0 | 1.0 | 0.00 | 0.00 | 0.00 | 91 | 1019.2 |
| 20260506115522 | 51 | 283 | 0.0 | 1.0 | 0.00 | 0.00 | 0.00 | 91 | 1019.2 |
| 20260506114543 | 51 | 314 | 1.0 | 1.0 | 0.00 | 0.00 | 0.00 | 90 | 1019.1 |
| 20260506113523 | 51 | 267 | 1.0 | 1.0 | 0.00 | 0.00 | 0.00 | 90 | 1019.0 |
| 20260506112542 | 52 | 280 | 1.0 | 1.0 | 0.00 | 0.00 | 0.00 | 90 | 1019.0 |
| 20260506111523 | 52 | 274 | 0.0 | 1.0 | 0.00 | 0.00 | 0.00 | 89 | 1019.0 |
| 20260506110523 | 52 | 291 | 1.0 | 1.0 | 0.00 | 0.00 | 0.00 | 89 | 1018.9 |
| 20260506105523 | 52 | 308 | 1.0 | 2.0 | 0.00 | 0.00 | 0.00 | 89 | 1018.9 |
| 20260506104523 | 53 | 308 | 1.0 | 1.0 | 0.00 | 0.00 | 0.00 | 88 | 1018.8 |
| 20260506103543 | 53 | 286 | 1.0 | 1.0 | 0.00 | 0.00 | 0.00 | 87 | 1018.8 |
| 20260506102523 | 54 | 321 | 0.0 | 1.0 | 0.00 | 0.00 | 0.00 | 86 | 1018.8 |
| 20260506101524 | 54 | 316 | 1.0 | 2.0 | 0.00 | 0.01 | 0.00 | 86 | 1018.8 |
| 20260506100524 | 55 | 316 | 1.0 | 1.0 | 0.00 | 0.01 | 0.00 | 85 | 1018.8 |
| 20260506095524 | 55 | 311 | 1.0 | 2.0 | 0.00 | 0.02 | 0.00 | 85 | 1018.8 |
| 20260506094524 | 56 | 306 | 1.0 | 1.0 | 0.00 | 0.02 | 0.00 | 84 | 1018.8 |
| 20260506093524 | 56 | 306 | 0.0 | 1.0 | 0.00 | 0.02 | 0.00 | 83 | 1018.9 |
| 20260506092524 | 57 | 330 | 1.0 | 2.0 | 0.00 | 0.02 | 0.00 | 82 | 1018.9 |
| 20260506091544 | 57 | 338 | 1.0 | 2.0 | 0.00 | 0.02 | 0.00 | 82 | 1018.9 |
| 20260506090606 | 57 | 340 | 1.0 | 2.0 | 0.00 | 0.02 | 0.00 | 82 | 1018.8 |
| 20260506085525 | 57 | 310 | 1.0 | 2.0 | 0.00 | 0.02 | 0.00 | 82 | 1018.8 |
| 20260506084525 | 57 | 313 | 1.0 | 2.0 | 0.00 | 0.02 | 0.00 | 83 | 1018.9 |
| 20260506083525 | 57 | 297 | 1.0 | 2.0 | 0.00 | 0.02 | 0.00 | 83 | 1018.9 |
| 20260506082546 | 57 | 329 | 1.0 | 2.0 | 0.00 | 0.02 | 0.00 | 83 | 1018.9 |
| 20260506081526 | 57 | 325 | 1.0 | 2.0 | 0.00 | 0.02 | 0.00 | 82 | 1019.0 |
| 20260506080525 | 57 | 307 | 1.0 | 2.0 | 0.00 | 0.02 | 0.00 | 82 | 1018.9 |
| 20260506073526 | 57 | 319 | 1.0 | 2.0 | 0.00 | 0.02 | 0.00 | 81 | 1018.7 |
| 20260506072526 | 57 | 315 | 1.0 | 2.0 | 0.00 | 0.02 | 0.00 | 81 | 1018.7 |
| 20260506071526 | 57 | 341 | 2.0 | 2.0 | 0.00 | 0.02 | 0.00 | 81 | 1018.6 |
| 20260506070526 | 57 | 323 | 1.0 | 3.0 | 0.00 | 0.02 | 0.00 | 81 | 1018.5 |
| 20260506061527 | 58 | 312 | 1.0 | 2.0 | 0.00 | 0.02 | 0.02 | 80 | 1018.2 |
| 20260506060547 | 58 | 335 | 1.0 | 2.0 | 0.00 | 0.02 | 0.02 | 80 | 1018.1 |
| 20260506050528 | 58 | 322 | 1.0 | 1.0 | 0.00 | 0.02 | 0.02 | 77 | 1017.7 |
| 20260506044548 | 58 | 328 | 1.0 | 1.0 | 0.00 | 0.02 | 0.02 | 76 | 1017.5 |
| 20260506043528 | 59 | 313 | 1.0 | 2.0 | 0.00 | 0.02 | 0.02 | 76 | 1017.5 |
| 20260506042528 | 59 | 314 | 1.0 | 1.0 | 0.00 | 0.02 | 0.02 | 75 | 1017.4 |
| 20260506041529 | 59 | 303 | 1.0 | 2.0 | 0.00 | 0.02 | 0.02 | 75 | 1017.3 |
| 20260506040609 | 59 | 286 | 0.0 | 1.0 | 0.00 | 0.02 | 0.02 | 75 | 1017.1 |
| 20260506035529 | 59 | 299 | 1.0 | 1.0 | 0.00 | 0.02 | 0.02 | 75 | 1017.0 |
| 20260506034529 | 59 | 321 | 1.0 | 2.0 | 0.00 | 0.02 | 0.02 | 74 | 1016.9 |
| 20260506033529 | 60 | 346 | 2.0 | 3.0 | 0.00 | 0.02 | 0.02 | 74 | 1016.8 |
| 20260506032549 | 60 | 335 | 1.0 | 2.0 | 0.00 | 0.02 | 0.02 | 74 | 1016.6 |
| 20260506031529 | 60 | 327 | 1.0 | 2.0 | 0.00 | 0.02 | 0.02 | 73 | 1016.5 |
| 20260506030529 | 61 | 339 | 1.0 | 2.0 | 0.00 | 0.02 | 0.02 | 72 | 1016.5 |
| 20260506025610 | 61 | 335 | 1.0 | 1.0 | 0.00 | 0.02 | 0.02 | 71 | 1016.3 |
| 20260506024530 | 61 | 339 | 1.0 | 1.0 | 0.00 | 0.02 | 0.02 | 71 | 1016.2 |
| 20260506023550 | 61 | 354 | 1.0 | 1.0 | 0.00 | 0.02 | 0.02 | 71 | 1016.1 |
| 20260506022530 | 62 | 319 | 0.0 | 2.0 | 0.00 | 0.02 | 0.02 | 70 | 1016.0 |
| 20260506021530 | 62 | 328 | 1.0 | 2.0 | 0.00 | 0.02 | 0.02 | 70 | 1016.0 |
| 20260506020530 | 62 | 313 | 0.0 | 1.0 | 0.00 | 0.02 | 0.02 | 71 | 1016.0 |
| 20260506015550 | 62 | 332 | 1.0 | 2.0 | 0.00 | 0.02 | 0.02 | 70 | 1016.0 |
| 20260506014550 | 62 | 327 | 0.0 | 1.0 | 0.00 | 0.02 | 0.02 | 69 | 1016.0 |
| 20260506013531 | 62 | 338 | 0.0 | 1.0 | 0.00 | 0.02 | 0.02 | 69 | 1016.1 |
| 20260506012531 | 62 | 329 | 1.0 | 1.0 | 0.00 | 0.02 | 0.02 | 69 | 1016.1 |
| 20260506011551 | 62 | 338 | 1.0 | 2.0 | 0.00 | 0.02 | 0.02 | 69 | 1016.0 |
| 20260506010531 | 62 | 348 | 1.0 | 2.0 | 0.00 | 0.02 | 0.02 | 69 | 1016.0 |
| 20260506005531 | 62 | 10 | 0.0 | 2.0 | 0.00 | 0.02 | 0.02 | 69 | 1016.0 |
| 20260506004531 | 62 | 359 | 1.0 | 2.0 | 0.00 | 0.02 | 0.02 | 69 | 1015.9 |
| 20260506003531 | 62 | 325 | 2.0 | 4.0 | 0.00 | 0.02 | 0.02 | 69 | 1015.9 |
| 20260506002531 | 63 | 345 | 1.0 | 2.0 | 0.00 | 0.02 | 0.02 | 69 | 1015.8 |
| 20260506001633 | 63 | 277 | 1.0 | 3.0 | 0.00 | 0.02 | 0.02 | 68 | 1015.7 |
| 20260506000532 | 63 | 347 | 2.0 | 4.0 | 0.00 | 0.02 | 0.02 | 68 | 1015.6 |
| 20260505235532 | 63 | 340 | 1.0 | 4.0 | 0.00 | 0.02 | 0.02 | 68 | 1015.6 |
| 20260505234532 | 64 | 14 | 1.0 | 4.0 | 0.00 | 0.02 | 0.02 | 68 | 1015.6 |
| 20260505233532 | 64 | 352 | 2.0 | 3.0 | 0.00 | 0.02 | 0.02 | 67 | 1015.7 |
| 20260505232532 | 65 | 35 | 1.0 | 2.0 | 0.00 | 0.02 | 0.02 | 66 | 1015.7 |
| 20260505231532 | 65 | 264 | 0.0 | 1.0 | 0.00 | 0.02 | 0.02 | 66 | 1015.8 |
| 20260505230518 | 65 | 352 | 1.0 | 2.0 | 0.00 | 0.02 | 0.02 | 66 | 1015.7 |
| 20260505225517 | 65 | 351 | 1.0 | 3.0 | 0.00 | 0.02 | 0.02 | 65 | 1015.7 |
| 20260505224533 | 65 | 329 | 1.0 | 3.0 | 0.00 | 0.02 | 0.02 | 65 | 1015.7 |
| 20260505223532 | 65 | 9 | 2.0 | 3.0 | 0.00 | 0.02 | 0.02 | 64 | 1015.8 |
| 20260505222533 | 65 | 358 | 1.0 | 3.0 | 0.00 | 0.02 | 0.02 | 64 | 1015.9 |
| 20260505221533 | 65 | 353 | 2.0 | 4.0 | 0.00 | 0.02 | 0.02 | 65 | 1015.9 |
| 20260505220533 | 64 | 333 | 1.0 | 3.0 | 0.00 | 0.02 | 0.02 | 66 | 1015.9 |
| 20260505215518 | 64 | 2 | 2.0 | 3.0 | 0.00 | 0.02 | 0.02 | 66 | 1016.0 |
| 20260505214518 | 63 | 287 | 2.0 | 4.0 | 0.00 | 0.02 | 0.02 | 67 | 1016.1 |
| 20260505213519 | 63 | 5 | 2.0 | 4.0 | 0.00 | 0.02 | 0.02 | 67 | 1016.1 |
| 20260505212519 | 63 | 352 | 1.0 | 3.0 | 0.00 | 0.02 | 0.02 | 68 | 1016.2 |
| 20260505211519 | 63 | 350 | 1.0 | 3.0 | 0.00 | 0.02 | 0.02 | 68 | 1016.2 |